Regional Weather Roundup
Issued by NWS

Home | Current Version | Previous Version | Text Only | Print | Product List | Glossary Off
Versions: 1 2 3 4 5 6 7 8 9 10 11 12 13 14 15 16 17 18 19 20 21 22 23 24 25 26 27 28 29 30 31 32 33 34 35 36 37 38 39 40 41 42 43 44 45 46 47 48 49 50

000
ASUS45 KTFX 011110
RWRMT
MONTANA REGIONAL WEATHER ROUNDUP
NATIONAL WEATHER SERVICE GREAT FALLS MT
500 AM MDT SAT AUG 01 2015

NOTE: "FAIR" INDICATES FEW OR NO CLOUDS BELOW 12000 FEET WITH NO
SIGNIFICANT WEATHER AND/OR OBSTRUCTIONS TO VISIBILITY.

MTZ001>007-043-011200-
WEST OF THE DIVIDE

CITY           SKY/WX    TMP DP  RH WIND       PRES   REMARKS
KALISPELL      SUNNY     47  36  65 CALM      30.01S
MISSOULA       CLEAR     55  37  50 CALM      30.09S
BUTTE          CLEAR     47  34  60 CALM      30.24F
MULLAN PASS    CLEAR     68  21  16 NW5       30.22F
DEER LODGE       N/A     46  36  66 CALM      30.21F
EUREKA           N/A     52  34  50 CALM      30.00R
HAMILTON         N/A     64  30  27 S9        30.09S
LIBBY            N/A     48  34  57 SE3       30.01S
PLAINS           N/A     52  38  58 CALM      30.03S
RONAN            N/A     51  41  69 CALM      30.06F
$$

MTZ008-052>055-011200-
SOUTHWEST MONTANA

CITY           SKY/WX    TMP DP  RH WIND       PRES   REMARKS
BOZEMAN        CLEAR     52  41  66 SE8       30.16F
DILLON         CLEAR     50  36  58 S14       30.22S
W YELLOWSTONE  CLEAR     34  32  93 CALM      30.35S
THREE FORKS      N/A     47  29  50 CALM      30.13S
TWIN BRIDGES     N/A     50  37  60 E3        30.17F
$$

MTZ009-010-012-014-046-048-049-054-011200-
EAST SLOPES AND CENTRAL MONTANA

CITY           SKY/WX    TMP DP  RH WIND       PRES   REMARKS
CUT BANK       CLEAR     60  30  32 W5        30.02F
GREAT FALLS    CLEAR     55  36  48 W9        30.04S
MALMSTROM AFB  CLEAR     60  36  41 W8        30.03S
HELENA         CLEAR     59  38  45 CALM      30.12S
CONRAD           N/A     54  39  56 CALM      30.03F
$$

MTZ011-013-016-021-045-047-050-051-011200-
NORTH CENTRAL MONTANA

CITY           SKY/WX    TMP DP  RH WIND       PRES   REMARKS
HAVRE          CLEAR     60  47  61 W9        29.93S
LEWISTOWN      CLEAR     55  40  56 SE8       30.07F
CHINOOK          N/A     54  50  87 SW5       29.92S
FORT BENTON      N/A     61  41  48 CALM      29.99S
$$

MTZ017>020-022>027-061-062-011200-
NORTHEAST MONTANA

CITY           SKY/WX    TMP DP  RH WIND       PRES   REMARKS
GLASGOW        CLEAR     58  50  75 E12       29.93F
JORDAN           N/A     55  45  68 W7        29.97F
SIDNEY         CLEAR     57  52  82 NW7       29.93S
WOLF POINT     CLEAR     55  48  77 NE3       29.95F
MALTA            N/A     54  49  83 CALM      29.91F
PLENTYWOOD       N/A     61  48  63 CALM      29.96F
POPLAR           N/A     55  52  88 CALM      29.95F
SCOBEY           N/A     55  45  69 CALM      29.97F
$$

MTZ028>42-056>058-011200-
SOUTHCENTRAL AND SOUTHEAST MONTANA

CITY           SKY/WX    TMP DP  RH WIND       PRES   REMARKS
BAKER          CLEAR     59  48  67 CALM      29.99F
BILLINGS       PTCLDY    63  36  36 SW18      30.07F
LIVINGSTON     CLEAR     48  39  71 W3        30.16F
MILES CITY     CLEAR     58  44  60 S6        29.98F
EKALAKA          N/A     68  43  40 CALM      30.01S
FORSYTH          N/A     61  41  48 CALM      29.98F
LAUREL           N/A     55  36  49 SW1       30.06F
ROUNDUP          N/A     57  41  55 S8        29.97F
$$

REGIONAL REPORTS...DAKOTAS

CITY           SKY/WX    TMP DP  RH WIND       PRES   REMARKS
WILLISTON      CLEAR     61  54  77 N6        29.95F
MINOT          PTCLDY    55  51  86 CALM      29.96F
DICKINSON      CLEAR     52  48  86 E7        29.92F
CROSBY         FAIR      48  48 100 S3        29.96F
BISMARCK       CLEAR     57  55  93 E8        29.97F
GRAND FORKS    PTCLDY    54  50  86 CALM      29.95F
FARGO          PTCLDY    59  54  83 CALM      29.97S
BUFFALO SD       N/A     65  50  58 W10       29.94F
RAPID CITY     MOCLDY    63  55  75 E6        30.02F
$$

REGIONAL REPORTS...WYOMING/IDAHO/WASHINGTON

CITY           SKY/WX    TMP DP  RH WIND       PRES   REMARKS
GILLETTE       CLEAR     65  49  56 S8        30.09F
SHERIDAN       CLEAR     62  41  46 SE3       30.10S
BUFFALO WY     CLEAR     67  36  31 NW10      30.16S
CODY           CLEAR     64  30  27 SW8       30.19S
YELLOWSTONE LA   N/A     37  30  75 NW3       30.43F
IDAHO FALLS    CLEAR     48  43  82 N3        30.18S
SALMON         PTCLDY    48  39  71 CALM      30.18R
BOISE          CLEAR     72  36  26 SW7       29.99S
SPOKANE        CLEAR     67  25  20 S10       29.95S
$$

REGIONAL REPORTS...ALBERTA

CITY           SKY/WX    TMP DP  RH WIND       PRES   REMARKS
EDMONTON       LGT RAIN  61  52  72 W7        29.97R
CALGARY        PTCLDY    59  48  67 N9        29.99F
LETHBRIDGE     CLEAR     54  41  62 SW8       29.95F
MEDICINE HAT   CLEAR     63  43  48 SW15      29.88S
WATERTON GATE    N/A     54  37  54 SW7         N/A
CARDSTON         N/A     61  34  36 SW9         N/A
MILK RIVER       N/A     55  37  50 NW9         N/A
ONEFOUR          N/A     55  43  62 NE7         N/A
$$

REGIONAL REPORTS...SASKATCHEWAN

CITY           SKY/WX    TMP DP  RH WIND       PRES   REMARKS
SWIFT CURRENT  MOCLDY    59  50  72 S14G31    29.91F
REGINA         CLEAR     54  50  87 SE8       29.92F
SASKATOON      MOCLDY    55  54  94 SW5       29.91F
CYPRESS HILLS    N/A     63  37  39 S6          N/A
VAL MARIE        N/A     54  50  87 SE3         N/A
ROCKGLEN         N/A     52  48  87 SE10        N/A
$$



USA.gov is the U.S. government's official web portal to all federal, state and local government web resources and services.